Weather History for Paynesville, MN

Change the Weather History Date:

Wednesday, May 15, 2013

  Actual Average (KLJF) Record (KLJF)
Temperature  
Mean Temperature 62 °F -  
Max Temperature 82 °F 71 °F 96 °F (2001)
Min Temperature 43 °F 45 °F 29 °F (1959)
Degree Days  
Heating Degree Days 3    
Growing Degree Days 12 (Base 50)    
Moisture  
Dew Point 39 °F    
Average Humidity 44    
Maximum Humidity 82    
Minimum Humidity 17    
Precipitation  
Precipitation 0.00 in - - ()
Sea Level Pressure  
Sea Level Pressure 29.85 in    
Wind  
Wind Speed 9 mph (West)    
Max Wind Speed 17 mph    
Max Gust Speed 26 mph    
Visibility 10 miles    
Events      
Averages and records for this station are not official NWS values.
T = Trace of Precipitation, MM = Missing Value Source: NWS Daily Summary

Daily Weather History Graph

Daily Weather History Graph

Search for Another Location

Airport:

Trip Planner

Search our weather history database for the weather conditions in past years. The results will help you decide how hot, cold, wet, or windy it might be!

Date:

Astronomy

May. 15, 2013 Rise Set
Actual Time 5:48 AM CDT 8:42 PM CDT
Civil Twilight 5:13 AM CDT 9:17 PM CDT
Nautical Twilight 4:29 AM CDT 10:01 PM CDT
Astronomical Twilight 3:37 AM CDT 10:54 PM CDT
Moon 10:27 AM CDT (5/15) 12:27 AM CDT (5/15)
Length of Visible Light 16h 03m
Length of Day
14h 54m
Waxing Crescent, 27% of the Moon is Illuminated
May 15
Waxing Crescent
May 17
First Quarter
May 24
Full
May 31
Last Quarter
Jun 8
New

Hourly Weather History & Observations

Time (CDT) Temp. Windchill Dew Point Humidity Pressure Visibility Wind Dir Wind Speed Gust Speed Precip Events Conditions
12:13 AM 61.9 °F - 42.3 °F 49% 29.77 in 10.0 mi NW 17.3 mph 24.2 mph N/A   Clear
12:33 AM 61.0 °F - 41.4 °F 48% 29.79 in 10.0 mi NW 12.7 mph - N/A   Clear
12:53 AM 59.9 °F - 41.4 °F 50% 29.80 in 10.0 mi NW 10.4 mph 16.1 mph N/A   Clear
1:13 AM 59.0 °F - 41.7 °F 53% 29.80 in 10.0 mi NW 10.4 mph 17.3 mph N/A   Clear
1:33 AM 57.7 °F - 41.9 °F 56% 29.81 in 10.0 mi NW 9.2 mph - N/A   Clear
1:53 AM 57.0 °F - 41.7 °F 57% 29.81 in 10.0 mi NW 9.2 mph - N/A   Clear
2:13 AM 56.3 °F - 41.5 °F 58% 29.82 in 10.0 mi NW 5.8 mph - N/A   Clear
2:33 AM 55.4 °F - 41.5 °F 60% 29.82 in 10.0 mi NW 4.6 mph - N/A   Clear
2:52 AM 54.5 °F - 41.4 °F 61% 29.82 in 10.0 mi WNW 4.6 mph - N/A   Clear
3:13 AM 53.6 °F - 41.4 °F 63% 29.83 in 10.0 mi WNW 3.5 mph - N/A   Clear
3:33 AM 49.3 °F - 39.9 °F 70% 29.84 in 10.0 mi West 6.9 mph - N/A   Clear
3:52 AM 46.8 °F - 39.2 °F 75% 29.84 in 10.0 mi West 5.8 mph - N/A   Clear
4:13 AM 45.1 °F 42.8 °F 38.5 °F 77% 29.84 in 10.0 mi West 4.6 mph - N/A   Clear
4:33 AM 45.9 °F - 39.9 °F 80% 29.84 in 10.0 mi Calm Calm - N/A   Clear
4:53 AM 44.4 °F 42.0 °F 38.5 °F 80% 29.84 in 10.0 mi WSW 4.6 mph - N/A   Clear
5:13 AM 45.3 °F 42.3 °F 39.4 °F 80% 29.86 in 10.0 mi WSW 5.8 mph - N/A   Clear
5:33 AM 43.7 °F 40.3 °F 38.5 °F 82% 29.89 in 10.0 mi WSW 5.8 mph - N/A   Clear
5:53 AM 43.7 °F 39.7 °F 38.5 °F 82% 29.89 in 10.0 mi WSW 6.9 mph - N/A   Clear
6:13 AM 45.3 °F 43.0 °F 40.1 °F 82% 29.90 in 10.0 mi West 4.6 mph - N/A   Clear
6:33 AM 46.0 °F 44.8 °F 40.3 °F 80% 29.92 in 10.0 mi West 3.5 mph - N/A   Clear
6:53 AM 49.6 °F - 41.9 °F 75% 29.93 in 10.0 mi West 3.5 mph - N/A   Clear
7:13 AM 54.5 °F - 44.1 °F 68% 29.93 in 10.0 mi West 5.8 mph - N/A   Clear
7:33 AM 54.9 °F - 44.4 °F 68% 29.93 in 10.0 mi Calm Calm - N/A   Clear
7:53 AM 55.9 °F - 43.9 °F 64% 29.92 in 10.0 mi Calm Calm - N/A   Clear
8:13 AM 57.7 °F - 43.5 °F 59% 29.92 in 10.0 mi West 5.8 mph - N/A   Clear
8:33 AM 59.2 °F - 43.3 °F 56% 29.92 in 10.0 mi Calm Calm - N/A   Clear
8:53 AM 60.8 °F - 42.4 °F 51% 29.91 in 10.0 mi Calm Calm - N/A   Clear
9:13 AM 61.3 °F - 42.3 °F 50% 29.91 in 10.0 mi Calm Calm - N/A   Clear
9:33 AM 62.2 °F - 43.3 °F 50% 29.91 in 10.0 mi Calm Calm - N/A   Clear
9:53 AM 65.3 °F - 41.9 °F 42% 29.91 in 10.0 mi Calm Calm - N/A   Clear
10:13 AM 67.6 °F - 37.9 °F 34% 29.91 in 10.0 mi WSW 3.5 mph - N/A   Clear
10:33 AM 68.7 °F - 37.8 °F 32% 29.91 in 10.0 mi WSW 5.8 mph - N/A   Clear
10:53 AM 70.2 °F - 38.3 °F 31% 29.91 in 10.0 mi WSW 6.9 mph - N/A   Clear
11:13 AM 70.9 °F - 40.5 °F 33% 29.91 in 10.0 mi WSW 11.5 mph - N/A   Clear
11:32 AM 71.6 °F - 39.4 °F 31% 29.91 in 10.0 mi WSW 11.5 mph - N/A   Clear
11:53 AM 71.6 °F - 39.9 °F 32% 29.91 in 10.0 mi SW 13.8 mph 17.3 mph N/A   Clear
12:13 PM 73.2 °F - 40.3 °F 30% 29.91 in 10.0 mi SW 10.4 mph 20.7 mph N/A   Clear
12:33 PM 73.4 °F - 41.0 °F 31% 29.89 in 10.0 mi SW 9.2 mph 17.3 mph N/A   Clear
12:53 PM 74.1 °F - 40.8 °F 30% 29.89 in 10.0 mi SW 13.8 mph 18.4 mph N/A   Clear
1:13 PM 74.7 °F - 39.7 °F 28% 29.88 in 10.0 mi SW 11.5 mph 19.6 mph N/A   Clear
1:33 PM 77.2 °F - 39.7 °F 26% 29.87 in 10.0 mi West 12.7 mph 17.3 mph N/A   Clear
1:53 PM 77.4 °F - 38.1 °F 24% 29.87 in 10.0 mi WSW 8.1 mph 20.7 mph N/A   Scattered Clouds
2:13 PM 77.7 °F - 38.3 °F 24% 29.86 in 10.0 mi WNW 13.8 mph 20.7 mph N/A   Scattered Clouds
2:32 PM 79.3 °F - 37.9 °F 23% 29.85 in 10.0 mi West 16.1 mph 19.6 mph N/A   Mostly Cloudy
2:53 PM 78.8 °F - 37.6 °F 23% 29.85 in 10.0 mi WNW 9.2 mph 20.7 mph N/A   Mostly Cloudy
3:13 PM 81.1 °F - 37.4 °F 21% 29.84 in 10.0 mi West 16.1 mph 26.5 mph N/A   Mostly Cloudy
3:32 PM 79.7 °F - 36.3 °F 21% 29.84 in 10.0 mi West 16.1 mph - N/A   Scattered Clouds
3:53 PM 81.3 °F - 33.6 °F 18% 29.84 in 10.0 mi West 16.1 mph 21.9 mph N/A   Scattered Clouds
4:13 PM 81.5 °F - 32.7 °F 17% 29.83 in 10.0 mi West 15.0 mph 19.6 mph N/A   Clear
4:33 PM 81.7 °F - 32.2 °F 17% 29.83 in 10.0 mi WNW 10.4 mph 21.9 mph N/A   Scattered Clouds
4:53 PM 80.6 °F - 32.0 °F 17% 29.83 in 10.0 mi West 13.8 mph 23.0 mph N/A   Scattered Clouds
5:13 PM 80.8 °F - 32.4 °F 17% 29.82 in 10.0 mi WNW 10.4 mph 16.1 mph N/A   Scattered Clouds
5:33 PM 80.2 °F - 32.0 °F 17% 29.83 in 10.0 mi West 15.0 mph 21.9 mph N/A   Clear
5:53 PM 80.4 °F - 32.4 °F 18% 29.82 in 10.0 mi West 13.8 mph 21.9 mph N/A   Scattered Clouds
6:13 PM 79.0 °F - 32.9 °F 19% 29.82 in 10.0 mi WNW 10.4 mph 18.4 mph N/A   Scattered Clouds
6:33 PM 79.0 °F - 33.6 °F 19% 29.82 in 10.0 mi WNW 11.5 mph 17.3 mph N/A   Clear
6:52 PM 79.5 °F - 34.3 °F 20% 29.82 in 10.0 mi West 12.7 mph 18.4 mph N/A   Clear
7:13 PM 77.7 °F - 34.9 °F 21% 29.81 in 10.0 mi West 9.2 mph - N/A   Clear
7:33 PM 77.5 °F - 35.6 °F 22% 29.82 in 10.0 mi West 10.4 mph - N/A   Clear
7:53 PM 75.6 °F - 38.1 °F 26% 29.82 in 10.0 mi West 6.9 mph - N/A   Clear
8:13 PM 73.9 °F - 38.7 °F 28% 29.81 in 10.0 mi WSW 4.6 mph - N/A   Clear
8:33 PM 70.9 °F - 39.6 °F 32% 29.82 in 10.0 mi WSW 5.8 mph - N/A   Clear
8:53 PM 69.8 °F - 39.7 °F 33% 29.82 in 10.0 mi WSW 9.2 mph - N/A   Clear
9:13 PM 67.6 °F - 41.2 °F 38% 29.82 in 10.0 mi WSW 6.9 mph - N/A   Clear
9:33 PM 64.0 °F - 41.2 °F 43% 29.82 in 10.0 mi WSW 4.6 mph - N/A   Clear
9:53 PM 61.9 °F - 41.4 °F 47% 29.83 in 10.0 mi WSW 8.1 mph - N/A   Clear
10:13 PM 62.6 °F - 41.5 °F 46% 29.83 in 10.0 mi WSW 5.8 mph - N/A   Clear
10:33 PM 61.2 °F - 41.9 °F 49% 29.83 in 10.0 mi WSW 6.9 mph - N/A   Clear
10:53 PM 59.7 °F - 42.1 °F 52% 29.83 in 10.0 mi WSW 5.8 mph - N/A   Clear
11:13 PM 59.9 °F - 42.4 °F 52% 29.83 in 10.0 mi West 8.1 mph - N/A   Clear
11:32 PM 58.5 °F - 42.3 °F 55% 29.84 in 10.0 mi WSW 6.9 mph - N/A   Clear
11:53 PM 58.5 °F - 42.3 °F 55% 29.84 in 10.0 mi WSW 5.8 mph - N/A   Clear